SHH1236 MDLR-TUPJ

Flight info

Callsign SHH1236
Flight time N/A
Altitude 37000
Route MELLA2M MELLA G633 MAZ DCT REKUA DCT SNGRA
Aircraft E190/M-SDE3GILORVW/S

Departure

Time 2026-05-04 12:46
Airport Casa De Campo International Airport (MDLR)

Arrival

Time N/A
Airport Terrance B. Lettsome International Airport (TUPJ)
Time Latitude Longitude Altitude Speed Heading
2026-05-04 12:00 18.44918 -68.91140 219 ft 0 kts 187°
2026-05-04 12:34 18.44920 -68.91140 219 ft 3 kts 187°
2026-05-04 12:34 18.44947 -68.91136 221 ft 4 kts 189°
2026-05-04 12:35 18.44972 -68.91130 221 ft 4 kts 211°
2026-05-04 12:35 18.44985 -68.91116 222 ft 1 kts 277°
2026-05-04 12:37 18.44985 -68.91118 222 ft 1 kts 277°
2026-05-04 12:37 18.44989 -68.91136 220 ft 3 kts 290°
2026-05-04 12:38 18.45011 -68.91156 219 ft 5 kts 339°
2026-05-04 12:38 18.45051 -68.91160 219 ft 7 kts
2026-05-04 12:38 18.45105 -68.91154 221 ft 9 kts
2026-05-04 12:38 18.45113 -68.91153 220 ft 0 kts
2026-05-04 12:39 18.45114 -68.91153 220 ft 0 kts
2026-05-04 12:39 18.45117 -68.91153 220 ft 0 kts
2026-05-04 12:39 18.45117 -68.91152 220 ft 0 kts
2026-05-04 12:40 18.45119 -68.91152 220 ft 0 kts
2026-05-04 12:40 18.45123 -68.91152 220 ft 2 kts
2026-05-04 12:40 18.45147 -68.91149 221 ft 4 kts
2026-05-04 12:40 18.45185 -68.91145 221 ft 7 kts
2026-05-04 12:41 18.45194 -68.91144 223 ft 0 kts
2026-05-04 12:42 18.45204 -68.91143 221 ft 4 kts
2026-05-04 12:42 18.45244 -68.91165 221 ft 10 kts 303°
2026-05-04 12:42 18.45264 -68.91261 220 ft 26 kts 275°
2026-05-04 12:43 18.45283 -68.91433 218 ft 21 kts 277°
2026-05-04 12:43 18.45302 -68.91584 221 ft 21 kts 277°
2026-05-04 12:43 18.45321 -68.91740 221 ft 22 kts 277°
2026-05-04 12:43 18.45341 -68.91912 219 ft 25 kts 277°
2026-05-04 12:44 18.45361 -68.92091 223 ft 25 kts 277°
2026-05-04 12:44 18.45379 -68.92254 220 ft 16 kts 277°
2026-05-04 12:44 18.45395 -68.92382 219 ft 19 kts 271°
2026-05-04 12:44 18.45377 -68.92474 225 ft 7 kts 305°
2026-05-04 12:45 18.45400 -68.92456 222 ft 4 kts 71°
2026-05-04 12:45 18.45382 -68.92267 220 ft 64 kts 97°
2026-05-04 12:45 18.45293 -68.91512 220 ft 141 kts 97°
2026-05-04 12:45 18.45159 -68.90336 737 ft 170 kts 96°
2026-05-04 12:46 18.45108 -68.89120 1957 ft 165 kts 93°
2026-05-04 12:46 18.44991 -68.87923 2851 ft 172 kts 101°
2026-05-04 12:46 18.44806 -68.86628 3791 ft 176 kts 99°
2026-05-04 12:46 18.44502 -68.85261 4199 ft 216 kts 111°